When you browse on this site, cookies collect data to enhance your experience and personalize the content and advertising you see.
Visit our Privacy Policy to learn more. By continuing to use the site, you agree to this use of cookies and data.
  • In Schweiz
  • Länderverzeichnis
  • Für 7 Tage
  • Wassertemperatur
  • Wetterkarte
  • Widgets
  • user-avatar
    Anmelden

    Stündliche Wetter Pinsk

    Heute, 20 Februar, Donnerstag

    Zeit Temperatur Niederschläge Wind Luftdruck Luftfeuchtigkeit
    00:00 +2°C° 0 mm 2 m/S 748 mmHg 83%
    01:00 +2°C° 0 mm 2 m/S 748 mmHg 84%
    02:00 +1°C° 0 mm 3 m/S 748 mmHg 86%
    03:00 +2°C° 0 mm 2 m/S 748 mmHg 88%
    04:00 +1°C° 0 mm 2 m/S 748 mmHg 90%
    05:00 +1°C° 0 mm 2 m/S 748 mmHg 93%
    06:00 +1°C° 0 mm 2 m/S 749 mmHg 94%
    07:00 +2°C° 0 mm 2 m/S 749 mmHg 95%
    08:00 +3°C° 0 mm 1 m/S 750 mmHg 96%
    09:00 +2°C° 0.1 mm 2 m/S 750 mmHg 95%
    10:00 +3°C° 0.1 mm 2 m/S 750 mmHg 94%
    11:00 +3°C° 0.1 mm 2 m/S 751 mmHg 93%
    12:00 +3°C° 0 mm 3 m/S 751 mmHg 89%
    13:00 +3°C° 0 mm 3 m/S 751 mmHg 86%
    14:00 +3°C° 0 mm 3 m/S 752 mmHg 83%
    15:00 +3°C° 0 mm 3 m/S 752 mmHg 85%
    16:00 +4°C° 0 mm 2 m/S 752 mmHg 86%
    17:00 +4°C° 0 mm 2 m/S 752 mmHg 87%
    18:00 +4°C° 0 mm 1 m/S 753 mmHg 88%
    19:00 +4°C° 0 mm 1 m/S 753 mmHg 88%
    20:00 +3°C° 0 mm 1 m/S 753 mmHg 88%
    21:00 +3°C° 0 mm 1 m/S 753 mmHg 87%
    22:00 +3°C° 0 mm 1 m/S 753 mmHg 86%
    23:00 +3°C° 0 mm 1 m/S 753 mmHg 86%

    Morgen, 21 Februar, Freitag

    Zeit Temperatur Niederschläge Wind Luftdruck Luftfeuchtigkeit
    00:00 +2°C° 0 mm 2 m/S 753 mmHg 85%
    01:00 +2°C° 0 mm 2 m/S 753 mmHg 85%
    02:00 +1°C° 0 mm 2 m/S 753 mmHg 85%
    03:00 +1°C° 0 mm 2 m/S 753 mmHg 84%
    04:00 -1°C° 0 mm 2 m/S 752 mmHg 83%
    05:00 -1°C° 0 mm 2 m/S 752 mmHg 82%
    06:00 -1°C° 0 mm 3 m/S 751 mmHg 81%
    07:00 -1°C° 0 mm 3 m/S 751 mmHg 80%
    08:00 -1°C° 0 mm 3 m/S 751 mmHg 79%
    15:00 +5°C° 0 mm 5 m/S 748 mmHg 61%
    16:00 +4°C° 0 mm 4 m/S 748 mmHg 65%
    17:00 +3°C° 0 mm 3 m/S 748 mmHg 69%
    18:00 +3°C° 0.1 mm 3 m/S 749 mmHg 77%
    19:00 +3°C° 0.1 mm 2 m/S 750 mmHg 86%
    20:00 +3°C° 0.1 mm 2 m/S 751 mmHg 94%
    21:00 +3°C° 0.2 mm 2 m/S 751 mmHg 94%
    22:00 +2°C° 0.2 mm 3 m/S 751 mmHg 95%
    23:00 +2°C° 0.2 mm 3 m/S 751 mmHg 96%

    übermorgen, 22 Februar, Samstag

    Zeit Temperatur Niederschläge Wind Luftdruck Luftfeuchtigkeit
    00:00 +2°C° 0 mm 3 m/S 752 mmHg 94%
    01:00 +1°C° 0 mm 3 m/S 753 mmHg 92%
    02:00 +1°C° 0 mm 3 m/S 753 mmHg 90%
    03:00 +1°C° 0 mm 3 m/S 753 mmHg 90%
    04:00 0°C° 0 mm 3 m/S 753 mmHg 89%
    05:00 +1°C° 0 mm 2 m/S 754 mmHg 89%
    06:00 +1°C° 0 mm 2 m/S 754 mmHg 90%
    07:00 +1°C° 0 mm 2 m/S 754 mmHg 90%
    08:00 -1°C° 0 mm 2 m/S 755 mmHg 90%
    09:00 +1°C° 0 mm 3 m/S 755 mmHg 86%
    10:00 +1°C° 0 mm 4 m/S 755 mmHg 81%
    11:00 +3°C° 0 mm 4 m/S 754 mmHg 76%
    12:00 +3°C° 0 mm 5 m/S 754 mmHg 71%
    13:00 +3°C° 0 mm 5 m/S 754 mmHg 66%
    14:00 +4°C° 0 mm 6 m/S 753 mmHg 61%
    15:00 +4°C° 0 mm 6 m/S 752 mmHg 62%
    16:00 +3°C° 0 mm 6 m/S 751 mmHg 62%
    17:00 +3°C° 0 mm 6 m/S 750 mmHg 63%
    18:00 +3°C° 0 mm 7 m/S 749 mmHg 63%
    19:00 +3°C° 0 mm 7 m/S 749 mmHg 62%
    20:00 +2°C° 0 mm 8 m/S 748 mmHg 62%
    21:00 +2°C° 0.1 mm 8 m/S 747 mmHg 66%
    22:00 +2°C° 0.1 mm 8 m/S 746 mmHg 69%
    23:00 +2°C° 0.1 mm 9 m/S 745 mmHg 73%

    23 Februar, Sonntag

    Zeit Temperatur Niederschläge Wind Luftdruck Luftfeuchtigkeit
    00:00 +2°C° 0.2 mm 9 m/S 745 mmHg 71%
    01:00 +3°C° 0.2 mm 9 m/S 744 mmHg 70%
    02:00 +3°C° 0.2 mm 9 m/S 743 mmHg 69%
    03:00 +3°C° 0.3 mm 9 m/S 743 mmHg 73%
    04:00 +4°C° 0.3 mm 8 m/S 742 mmHg 78%
    05:00 +4°C° 0.3 mm 8 m/S 742 mmHg 82%
    06:00 +2°C° 0.3 mm 8 m/S 742 mmHg 79%
    07:00 +2°C° 0.3 mm 8 m/S 742 mmHg 75%
    08:00 +1°C° 0.3 mm 8 m/S 743 mmHg 71%
    09:00 +1°C° 0.2 mm 8 m/S 743 mmHg 67%
    10:00 +2°C° 0.2 mm 9 m/S 743 mmHg 63%
    11:00 +2°C° 0.2 mm 9 m/S 743 mmHg 59%
    12:00 +2°C° 0.1 mm 9 m/S 743 mmHg 57%
    13:00 +2°C° 0.1 mm 9 m/S 743 mmHg 55%
    14:00 +3°C° 0.1 mm 9 m/S 744 mmHg 53%
    15:00 +2°C° 0 mm 8 m/S 743 mmHg 55%
    16:00 +3°C° 0 mm 7 m/S 743 mmHg 57%
    17:00 +2°C° 0 mm 6 m/S 743 mmHg 59%
    18:00 +2°C° 0 mm 6 m/S 743 mmHg 62%
    19:00 +1°C° 0 mm 5 m/S 743 mmHg 65%
    20:00 0°C° 0 mm 4 m/S 743 mmHg 68%
    21:00 0°C° 0 mm 4 m/S 743 mmHg 70%
    22:00 0°C° 0 mm 5 m/S 743 mmHg 72%
    23:00 -1°C° 0 mm 5 m/S 742 mmHg 74%

    24 Februar, Montag

    Zeit Temperatur Niederschläge Wind Luftdruck Luftfeuchtigkeit
    00:00 -1°C° 0 mm 5 m/S 742 mmHg 77%
    01:00 -1°C° 0 mm 4 m/S 741 mmHg 79%
    02:00 -1°C° 0 mm 4 m/S 741 mmHg 82%
    03:00 -1°C° 0 mm 4 m/S 741 mmHg 85%
    04:00 -1°C° 0 mm 5 m/S 741 mmHg 88%
    05:00 -1°C° 0 mm 5 m/S 740 mmHg 91%
    06:00 -2°C° 0 mm 6 m/S 741 mmHg 90%
    07:00 -2°C° 0 mm 7 m/S 741 mmHg 88%
    08:00 -1°C° 0 mm 7 m/S 742 mmHg 86%
    09:00 0°C° 0 mm 8 m/S 742 mmHg 76%
    10:00 +1°C° 0 mm 9 m/S 743 mmHg 66%
    11:00 +2°C° 0 mm 9 m/S 743 mmHg 56%
    12:00 +2°C° 0 mm 9 m/S 744 mmHg 57%
    13:00 +2°C° 0 mm 8 m/S 744 mmHg 57%
    14:00 +4°C° 0 mm 8 m/S 745 mmHg 58%
    15:00 +3°C° 0 mm 7 m/S 745 mmHg 58%
    16:00 +3°C° 0 mm 7 m/S 745 mmHg 59%
    17:00 +3°C° 0 mm 6 m/S 746 mmHg 59%
    18:00 +2°C° 0 mm 5 m/S 746 mmHg 63%
    19:00 +1°C° 0 mm 5 m/S 747 mmHg 67%
    20:00 0°C° 0 mm 5 m/S 748 mmHg 71%
    21:00 0°C° 0 mm 4 m/S 748 mmHg 73%
    22:00 -1°C° 0 mm 4 m/S 748 mmHg 75%
    23:00 0°C° 0 mm 3 m/S 748 mmHg 77%

    25 Februar, Dienstag

    Zeit Temperatur Niederschläge Wind Luftdruck Luftfeuchtigkeit
    00:00 -1°C° 0 mm 3 m/S 748 mmHg 79%
    01:00 -1°C° 0 mm 3 m/S 748 mmHg 82%
    02:00 -1°C° 0 mm 3 m/S 748 mmHg 85%
    03:00 -1°C° 0 mm 2 m/S 748 mmHg 86%
    04:00 -1°C° 0 mm 2 m/S 748 mmHg 87%
    05:00 -1°C° 0 mm 2 m/S 747 mmHg 87%
    06:00 -1°C° 0 mm 3 m/S 747 mmHg 85%
    07:00 -1°C° 0 mm 4 m/S 746 mmHg 83%
    08:00 -1°C° 0 mm 4 m/S 746 mmHg 81%
    09:00 -1°C° 0.5 mm 5 m/S 745 mmHg 84%
    10:00 0°C° 0.5 mm 5 m/S 744 mmHg 88%
    11:00 -1°C° 0.5 mm 6 m/S 744 mmHg 91%
    12:00 +1°C° 0.6 mm 5 m/S 743 mmHg 91%
    13:00 +2°C° 0.6 mm 5 m/S 743 mmHg 91%
    14:00 +4°C° 0.6 mm 4 m/S 742 mmHg 92%
    15:00 +4°C° 0 mm 4 m/S 742 mmHg 92%
    16:00 +4°C° 0 mm 4 m/S 742 mmHg 93%
    17:00 +5°C° 0 mm 3 m/S 742 mmHg 94%
    18:00 +4°C° 0 mm 3 m/S 742 mmHg 94%
    19:00 +4°C° 0 mm 3 m/S 742 mmHg 94%
    20:00 +4°C° 0 mm 3 m/S 742 mmHg 95%
    21:00 +4°C° 0.1 mm 4 m/S 741 mmHg 95%
    22:00 +4°C° 0.1 mm 4 m/S 741 mmHg 95%
    23:00 +4°C° 0.1 mm 4 m/S 741 mmHg 96%
    Mehr zeigen